Weather History for Sierra Vista, AZ

Change the Weather History Date:

Sunday, March 24, 2013

  Actual Average Record
Temperature  
Mean Temperature 58 °F -  
Max Temperature 70 °F 70 °F 83 °F (1988)
Min Temperature 46 °F 47 °F 31 °F (1991)
Degree Days  
Heating Degree Days 7    
Growing Degree Days 8 (Base 50)    
Moisture  
Dew Point 1 °F    
Average Humidity 11    
Maximum Humidity 19    
Minimum Humidity 7    
Precipitation  
Precipitation 0.00 in - - ()
Sea Level Pressure  
Sea Level Pressure 29.92 in    
Wind  
Wind Speed 10 mph (West)    
Max Wind Speed 16 mph    
Max Gust Speed 26 mph    
Visibility 10 miles    
Events      
Averages and records for this station are not official NWS values.
T = Trace of Precipitation, MM = Missing Value Source: NWS Daily Summary

Daily Weather History Graph

Daily Weather History Graph

Search for Another Location

Airport:

Trip Planner

Search our weather history database for the weather conditions in past years. The results will help you decide how hot, cold, wet, or windy it might be!

Date:

Astronomy

Mar. 24, 2013 Rise Set
Actual Time 6:19 AM MST 6:35 PM MST
Civil Twilight 5:55 AM MST 7:00 PM MST
Nautical Twilight 5:26 AM MST 7:28 PM MST
Astronomical Twilight 4:58 AM MST 7:57 PM MST
Moon 4:14 PM MST (3/24) 4:23 AM MST (3/24)
Length of Visible Light 13h 04m
Length of Day
12h 16m
Waxing Gibbous, 92% of the Moon is Illuminated
Mar 24
Waxing Gibbous
Mar 27
Full
Apr 2
Last Quarter
Apr 10
New
Apr 18
First Quarter

Hourly Weather History & Observations

Time (MST) Temp. Dew Point Humidity Pressure Visibility Wind Dir Wind Speed Gust Speed Precip Events Conditions
12:56 AM 51.1 °F 1.0 °F 13% 29.95 in 10.0 mi WSW 12.7 mph - N/A   Clear
1:56 AM 50.0 °F -0.0 °F 13% 29.96 in 10.0 mi West 12.7 mph - N/A   Clear
2:56 AM 50.0 °F -0.0 °F 13% 29.94 in 10.0 mi WSW 11.5 mph - N/A   Clear
3:56 AM 50.0 °F -0.9 °F 12% 29.93 in 10.0 mi WSW 12.7 mph - N/A   Clear
4:56 AM 48.0 °F -0.0 °F 14% 29.95 in 10.0 mi West 10.4 mph - N/A   Clear
5:56 AM 46.9 °F -0.0 °F 14% 29.97 in 10.0 mi WSW 8.1 mph - N/A   Clear
6:56 AM 46.9 °F 6.1 °F 19% 29.99 in 10.0 mi SW 5.8 mph - N/A   Clear
7:56 AM 55.0 °F 3.0 °F 12% 29.99 in 10.0 mi Calm Calm - N/A   Clear
8:56 AM 57.9 °F -2.0 °F 9% 29.99 in 10.0 mi Calm Calm - N/A   Clear
9:56 AM 61.0 °F -0.0 °F 9% 29.97 in 10.0 mi West 6.9 mph - N/A   Clear
10:56 AM 63.0 °F 1.0 °F 8% 29.95 in 10.0 mi West 8.1 mph 17.3 mph N/A   Clear
11:56 AM 64.0 °F -0.0 °F 8% 29.93 in 10.0 mi Variable 4.6 mph 16.1 mph N/A   Clear
12:56 PM 66.9 °F -0.9 °F 7% 29.89 in 10.0 mi North 13.8 mph 23.0 mph N/A   Clear
1:56 PM 69.1 °F 1.0 °F 7% 29.85 in 10.0 mi NW 13.8 mph - N/A   Clear
2:56 PM 70.0 °F 3.0 °F 7% 29.83 in 10.0 mi WNW 12.7 mph 24.2 mph N/A   Clear
3:56 PM 69.1 °F 3.0 °F 7% 29.82 in 10.0 mi WNW 13.8 mph 26.5 mph N/A   Clear
4:56 PM 66.9 °F 3.9 °F 8% 29.83 in 10.0 mi NW 16.1 mph 25.3 mph N/A   Clear
5:56 PM 64.0 °F 1.9 °F 8% 29.85 in 10.0 mi NW 16.1 mph - N/A   Clear
6:56 PM 60.1 °F -0.0 °F 9% 29.88 in 10.0 mi WNW 11.5 mph - N/A   Clear
7:56 PM 57.0 °F -0.9 °F 9% 29.90 in 10.0 mi West 13.8 mph - N/A   Clear
8:56 PM 54.0 °F 1.0 °F 12% 29.91 in 10.0 mi WSW 12.7 mph - N/A   Clear
9:56 PM 53.1 °F 1.9 °F 12% 29.92 in 10.0 mi WSW 5.8 mph - N/A   Clear
10:55 PM 51.8 °F 3.2 °F 14% 29.93 in 10.0 mi WSW 4.6 mph - N/A   Clear
11:55 PM 50.0 °F 3.2 °F 15% 29.92 in 10.0 mi Variable 2.3 mph - N/A   Clear